• In Uzbekistan
  • List of Countries
  • For 7 days
  • Water Temperature
  • Satellite Maps
  • Weather Map
  • Weather Widgets
  • user-avatar
    Login

    Hourly Weather Korçe

    Today, 28 June, Wednesday

    Time Temperature Precipitation Wind Pressure Humidity
    00:00 +16°C° 0 mm 1 mps 665 mmHg 78%
    01:00 +16°C° 0 mm 1 mps 665 mmHg 78%
    02:00 +15°C° 0 mm 1 mps 665 mmHg 79%
    03:00 +15°C° 0 mm 1 mps 665 mmHg 79%
    04:00 +15°C° 0 mm 2 mps 665 mmHg 80%
    05:00 +18°C° 0 mm 2 mps 666 mmHg 71%
    06:00 +21°C° 0 mm 1 mps 666 mmHg 62%
    07:00 +24°C° 0 mm 1 mps 667 mmHg 54%
    08:00 +25°C° 0 mm 2 mps 668 mmHg 47%
    09:00 +27°C° 0 mm 2 mps 668 mmHg 41%
    10:00 +28°C° 0 mm 2 mps 668 mmHg 35%
    11:00 +29°C° 0 mm 3 mps 668 mmHg 33%
    12:00 +30°C° 0 mm 3 mps 668 mmHg 32%
    13:00 +30°C° 0 mm 3 mps 668 mmHg 30%
    14:00 +30°C° 0 mm 3 mps 668 mmHg 33%
    15:00 +29°C° 0 mm 3 mps 668 mmHg 35%
    16:00 +29°C° 0 mm 3 mps 668 mmHg 37%
    17:00 +26°C° 0 mm 2 mps 667 mmHg 47%
    18:00 +23°C° 0 mm 2 mps 666 mmHg 57%
    19:00 +21°C° 0 mm 1 mps 665 mmHg 68%
    20:00 +20°C° 0 mm 1 mps 666 mmHg 68%
    21:00 +20°C° 0 mm 1 mps 666 mmHg 69%
    22:00 +19°C° 0 mm 1 mps 666 mmHg 70%
    23:00 +18°C° 0 mm 2 mps 666 mmHg 70%

    Tomorrow, 29 June, Thursday

    Time Temperature Precipitation Wind Pressure Humidity
    00:00 +17°C° 0 mm 2 mps 666 mmHg 70%
    01:00 +17°C° 0 mm 2 mps 665 mmHg 70%
    02:00 +17°C° 0 mm 2 mps 665 mmHg 68%
    03:00 +17°C° 0 mm 2 mps 665 mmHg 65%
    04:00 +16°C° 0 mm 2 mps 665 mmHg 62%
    05:00 +19°C° 0 mm 2 mps 666 mmHg 56%
    06:00 +21°C° 0 mm 2 mps 667 mmHg 51%
    07:00 +25°C° 0 mm 2 mps 668 mmHg 45%
    08:00 +27°C° 0 mm 3 mps 668 mmHg 39%
    09:00 +29°C° 0 mm 3 mps 669 mmHg 33%
    10:00 +32°C° 0 mm 4 mps 669 mmHg 28%
    11:00 +32°C° 0 mm 4 mps 669 mmHg 27%
    12:00 +33°C° 0 mm 4 mps 669 mmHg 26%
    13:00 +33°C° 0 mm 5 mps 669 mmHg 25%
    14:00 +33°C° 0 mm 4 mps 669 mmHg 27%
    15:00 +32°C° 0 mm 4 mps 669 mmHg 29%
    16:00 +32°C° 0 mm 4 mps 668 mmHg 30%
    17:00 +28°C° 0 mm 3 mps 668 mmHg 40%
    18:00 +25°C° 0 mm 2 mps 667 mmHg 50%
    19:00 +21°C° 0 mm 2 mps 667 mmHg 60%
    20:00 +20°C° 0 mm 2 mps 667 mmHg 61%
    21:00 +19°C° 0 mm 2 mps 667 mmHg 62%
    22:00 +18°C° 0 mm 2 mps 667 mmHg 63%
    23:00 +18°C° 0 mm 2 mps 667 mmHg 61%

    Day after tomorrow, 30 June, Friday

    Time Temperature Precipitation Wind Pressure Humidity
    00:00 +18°C° 0 mm 2 mps 667 mmHg 59%
    01:00 +17°C° 0 mm 2 mps 667 mmHg 57%
    02:00 +17°C° 0 mm 2 mps 667 mmHg 55%
    03:00 +17°C° 0 mm 2 mps 667 mmHg 53%
    04:00 +17°C° 0 mm 2 mps 667 mmHg 51%
    05:00 +19°C° 0 mm 2 mps 668 mmHg 48%
    06:00 +23°C° 0 mm 1 mps 669 mmHg 44%
    07:00 +26°C° 0 mm 1 mps 670 mmHg 41%
    08:00 +28°C° 0 mm 1 mps 670 mmHg 36%
    09:00 +30°C° 0 mm 1 mps 671 mmHg 31%
    10:00 +32°C° 0 mm 2 mps 671 mmHg 27%
    11:00 +34°C° 0 mm 2 mps 671 mmHg 25%
    12:00 +35°C° 0 mm 2 mps 671 mmHg 23%
    13:00 +35°C° 0 mm 2 mps 671 mmHg 21%
    14:00 +35°C° 0 mm 2 mps 671 mmHg 23%
    15:00 +35°C° 0 mm 2 mps 670 mmHg 24%
    16:00 +34°C° 0 mm 2 mps 670 mmHg 26%
    17:00 +30°C° 0 mm 2 mps 669 mmHg 35%
    18:00 +26°C° 0 mm 1 mps 668 mmHg 45%
    19:00 +23°C° 0 mm 1 mps 667 mmHg 55%
    20:00 +22°C° 0 mm 1 mps 667 mmHg 55%
    21:00 +20°C° 0 mm 2 mps 667 mmHg 54%
    22:00 +20°C° 0 mm 2 mps 667 mmHg 54%
    23:00 +19°C° 0 mm 2 mps 667 mmHg 51%

    1 July, Saturday

    Time Temperature Precipitation Wind Pressure Humidity
    00:00 +19°C° 0 mm 2 mps 667 mmHg 49%
    01:00 +19°C° 0 mm 2 mps 667 mmHg 46%
    02:00 +18°C° 0 mm 2 mps 666 mmHg 43%
    03:00 +18°C° 0 mm 2 mps 666 mmHg 41%
    04:00 +18°C° 0 mm 2 mps 666 mmHg 38%
    05:00 +21°C° 0 mm 2 mps 667 mmHg 37%
    06:00 +25°C° 0 mm 1 mps 668 mmHg 35%
    07:00 +27°C° 0 mm 1 mps 668 mmHg 34%
    08:00 +29°C° 0 mm 1 mps 669 mmHg 30%
    09:00 +31°C° 0 mm 1 mps 669 mmHg 26%
    10:00 +34°C° 0 mm 2 mps 670 mmHg 22%
    11:00 +34°C° 0 mm 2 mps 669 mmHg 21%
    12:00 +35°C° 0 mm 2 mps 669 mmHg 21%
    13:00 +35°C° 0 mm 3 mps 669 mmHg 20%
    14:00 +35°C° 0 mm 3 mps 669 mmHg 22%
    15:00 +34°C° 0 mm 3 mps 668 mmHg 24%
    16:00 +33°C° 0 mm 3 mps 668 mmHg 27%
    17:00 +29°C° 0 mm 2 mps 667 mmHg 37%
    18:00 +26°C° 0 mm 2 mps 666 mmHg 48%
    19:00 +23°C° 0 mm 1 mps 665 mmHg 59%
    20:00 +21°C° 0 mm 1 mps 665 mmHg 62%
    21:00 +20°C° 0 mm 1 mps 665 mmHg 65%
    22:00 +19°C° 0 mm 1 mps 664 mmHg 69%
    23:00 +19°C° 0 mm 1 mps 664 mmHg 69%

    2 July, Sunday

    Time Temperature Precipitation Wind Pressure Humidity
    00:00 +18°C° 0 mm 1 mps 663 mmHg 69%
    01:00 +18°C° 0 mm 1 mps 663 mmHg 70%
    02:00 +16°C° 0 mm 1 mps 663 mmHg 71%
    03:00 +16°C° 0 mm 1 mps 662 mmHg 72%
    04:00 +16°C° 0 mm 1 mps 662 mmHg 73%
    05:00 +19°C° 0 mm 1 mps 663 mmHg 67%
    06:00 +21°C° 0 mm 1 mps 663 mmHg 62%
    07:00 +24°C° 0 mm 2 mps 664 mmHg 57%
    08:00 +24°C° 0 mm 2 mps 664 mmHg 55%
    09:00 +25°C° 0 mm 3 mps 664 mmHg 53%
    10:00 +26°C° 0 mm 4 mps 664 mmHg 51%
    11:00 +26°C° 0.1 mm 4 mps 664 mmHg 50%
    12:00 +26°C° 0.1 mm 4 mps 664 mmHg 49%
    13:00 +26°C° 0.1 mm 4 mps 664 mmHg 48%
    14:00 +26°C° 0 mm 5 mps 663 mmHg 47%
    15:00 +25°C° 0 mm 5 mps 663 mmHg 45%
    16:00 +23°C° 0 mm 5 mps 663 mmHg 44%
    17:00 +21°C° 0 mm 4 mps 663 mmHg 52%
    18:00 +19°C° 0 mm 3 mps 663 mmHg 59%
    19:00 +17°C° 0 mm 3 mps 662 mmHg 66%
    20:00 +16°C° 0 mm 2 mps 662 mmHg 72%
    21:00 +14°C° 0 mm 2 mps 662 mmHg 79%
    22:00 +13°C° 0 mm 2 mps 662 mmHg 85%
    23:00 +13°C° 0 mm 2 mps 662 mmHg 87%

    3 July, Monday

    Time Temperature Precipitation Wind Pressure Humidity
    00:00 +12°C° 0 mm 2 mps 662 mmHg 89%
    01:00 +12°C° 0 mm 2 mps 662 mmHg 92%
    02:00 +12°C° 0 mm 1 mps 662 mmHg 91%
    03:00 +12°C° 0 mm 1 mps 662 mmHg 91%
    04:00 +11°C° 0 mm 1 mps 662 mmHg 91%
    05:00 +13°C° 0 mm 2 mps 662 mmHg 81%
    06:00 +15°C° 0 mm 2 mps 663 mmHg 72%
    07:00 +17°C° 0 mm 2 mps 664 mmHg 62%
    08:00 +19°C° 0 mm 2 mps 664 mmHg 55%
    09:00 +21°C° 0 mm 2 mps 664 mmHg 47%
    10:00 +22°C° 0 mm 3 mps 665 mmHg 40%
    11:00 +24°C° 0 mm 3 mps 665 mmHg 38%
    12:00 +25°C° 0 mm 3 mps 665 mmHg 36%
    13:00 +25°C° 0 mm 4 mps 665 mmHg 34%
    14:00 +25°C° 0 mm 4 mps 665 mmHg 35%
    15:00 +23°C° 0 mm 4 mps 665 mmHg 37%
    16:00 +23°C° 0 mm 4 mps 665 mmHg 39%
    17:00 +20°C° 0 mm 3 mps 665 mmHg 47%
    18:00 +18°C° 0 mm 3 mps 664 mmHg 56%
    19:00 +16°C° 0 mm 2 mps 664 mmHg 64%
    20:00 +15°C° 0 mm 2 mps 664 mmHg 68%
    21:00 +14°C° 0 mm 2 mps 664 mmHg 71%
    22:00 +13°C° 0 mm 2 mps 664 mmHg 74%
    23:00 +13°C° 0 mm 2 mps 664 mmHg 75%
    Show more